Location: Quedlinburg
(51.7921°N, 11.1414°E)
Time: 10:00:31
(UTC+02:00)

RS-44 - Pass Details

Date: 24 March 2026
Orbit: 1175 x 1510 km, 82.5° (Epoch: 17 April)

Event Time Altitude Azimuth Distance (km) Brightness Sun altitude
Rises 02:01:35 0° 348° (NNW) 4,468 ? -32.8°
Reaches altitude 10° 02:04:21 10° 347° (NNW) 3,529 ? -32.6°
Maximum altitude 02:12:52 77° 264° (W) 1,518 ? -31.9°
Enters shadow 02:13:46 71° 217° (SW) 1,560 ? -31.8°
